Regional Weather Roundup
Issued by NWS

Home | Current Version | Previous Version | Graphics & Text | Print | Product List | Glossary Off
Versions: 1 2 3 4 5 6 7 8 9 10 11 12 13 14 15 16 17 18 19 20 21 22 23 24 25 26 27 28 29 30 31 32 33 34 35 36 37 38 39 40 41 42 43 44 45 46 47 48 49 50

000
ASUS43 KDMX 270307
RWRIA

WEATHER ROUNDUP FOR IOWA
NATIONAL WEATHER SERVICE DES MOINES IA
1000 PM CDT THU MAR 26 2015

NOTE: "FAIR" INDICATES FEW OR NO CLOUDS BELOW 12,000 FEET WITH NO
SIGNIFICANT WEATHER AND/OR OBSTRUCTIONS TO VISIBILITY.

* - THESE STATIONS ARE NOT NWS STATIONS...THUS NOT UNDER NWS
QUALITY CONTROL.  THEY ALSO DO NOT REPORT WEATHER SUCH
AS PRECIPITATION OR FOG.

IAZ001>003-012>014-020>022-031>034-043>046-270400-
   NORTHWEST IOWA

CITY           SKY/WX    TMP DP  RH WIND       PRES   REMARKS
CARROLL *      CLOUDY    32  21  64 N12       30.18R WCI  23
CHEROKEE *     PTCLDY    30  21  69 N9        30.21R WCI  22
DENISON *      MOCLDY    34  25  69 N8        30.17R WCI  27
LE MARS *      CLOUDY    32  21  64 N12       30.22R WCI  23
ORANGE CITY *  PTCLDY    30  19  64 NE7       30.21R WCI  23
SHELDON *      CLEAR     27  19  74 N12       30.20R WCI  16
SIOUX CITY     MOCLDY    36  25  64 N9        30.21R WCI  29
SPENCER        CLEAR     28  18  66 N14       30.20R WCI  17
STORM LAKE *   CLOUDY    30  21  69 N13       30.19R WCI  20
$$

IAZ055>058-069>071-079>083-090>094-270400-
   SOUTHWEST IOWA

CITY           SKY/WX    TMP DP  RH WIND       PRES   REMARKS
ATLANTIC *     CLOUDY    34  34 100 N7        30.18R WCI  28
AUDUBON *      PTCLDY    34  28  80 NW5       30.17S WCI  30
CLARINDA *     CLOUDY    36  34  93 N7        30.19S WCI  30
COUNCIL BLFS * CLOUDY    34  34 100 N5        30.19R WCI  30
CRESTON *      FLURRIES  34  34 100 N9        30.16R WCI  26
HARLAN  *      CLOUDY    34  34 100 NW10      30.21R WCI  26
LAMONI         MIX PCPN  36  33  89 N10       30.14R WCI  28
RED OAK *      CLOUDY    34  34 100 N6        30.18R WCI  29
SHENANDOAH *   CLOUDY    36  34  93 NE7       30.19S WCI  30
$$

IAZ047>049-059>061-072>074-084-270400-
   CENTRAL IOWA

CITY           SKY/WX    TMP DP  RH WIND       PRES   REMARKS
AMES           CLOUDY    33  22  63 N13       30.17R WCI  24
ANKENY *       CLOUDY    36  25  64 N13G22    30.17R WCI  27
CHARITON *     CLOUDY    37  27  65 N16       30.14R WCI  28
DES MOINES     CLOUDY    37  23  56 N13G22    30.17R WCI  29
GRINNELL*      CLOUDY    34  25  69 N13       30.15R WCI  25
KNOXVILLE *    CLOUDY    37  23  56 N12       30.13S WCI  30
MARSHALLTOWN   CLOUDY    33  22  63 N15       30.15R WCI  23
PELLA *        CLOUDY    36  28  75 N9        30.16R WCI  29
PERRY *        CLOUDY    34  25  69 N15       30.18R WCI  24
$$

IAZ004>006-015-016-023>025-035-036-270400-
   NORTH CENTRAL IOWA

CITY           SKY/WX    TMP DP  RH WIND       PRES   REMARKS
ALGONA *       CLOUDY    30  21  69 N15       30.19R WCI  19
CLARION *      CLOUDY    30  21  69 N15       30.17R WCI  19
ESTHERVILLE    CLOUDY    28  17  63 N17       30.19R WCI  16
FORT DODGE *   CLOUDY    30  19  64 N12       30.19R WCI  21
MASON CITY     CLOUDY    30  20  66 N15       30.17R WCI  19
FOREST CITY *  CLOUDY    30  19  64 N17       30.17R WCI  18
IOWA FALLS *   CLOUDY    32  23  69 NW16      30.17R WCI  21
$$

IAZ007>011-017>019-026>030-037>042-050>054-066-270400-
   NORTHEAST IOWA

CITY           SKY/WX    TMP DP  RH WIND       PRES   REMARKS
CEDAR RAPIDS   CLOUDY    30  22  72 N8        30.13R WCI  22
CHARLES CITY * CLOUDY    32  25  74 NW15      30.15R WCI  22
CLINTON *      CLOUDY    30  23  74 NW6       30.13R WCI  24
DECORAH *      CLOUDY    30  23  74 NW10      30.11R WCI  21
DUBUQUE        CLOUDY    29  20  69 NW9       30.09R WCI  20
MONTICELLO *   CLEAR     28  23  80 NW8       30.12R WCI  20
OELWEIN *      CLOUDY    30  23  74 NW10      30.13R WCI  21
WATERLOO       CLEAR     27  20  75 NW8       30.15R WCI  19
$$

IAZ064-065-067-068-078-270400-
   EAST CENTRAL IOWA

CITY           SKY/WX    TMP DP  RH WIND       PRES   REMARKS
DAVENPORT      CLEAR     27  21  78 NW7       30.11R WCI  19
IOWA CITY      MOCLDY    33  20  58 N13       30.15R WCI  24
MT. PLEASANT * CLOUDY    32  25  74 N14       30.13R WCI  22
MUSCATINE *    PTCLDY    32  21  64 N7        30.14R WCI  26
QUAD CITIES    CLEAR     32  20  61 NW8       30.11R WCI  25
$$

IAZ062-063-075>077-085>089-095>099-270400-
   SOUTHEAST IOWA

CITY           SKY/WX    TMP DP  RH WIND       PRES   REMARKS
BURLINGTON     MOCLDY    36  25  64 N12       30.11R WCI  28
FAIRFIELD *    CLOUDY    36  23  60 N10       30.13R WCI  28
FORT MADISON * CLOUDY    36  27  69 N8        30.12R WCI  29
KEOKUK *       CLOUDY    39  25  56 N12       30.10R WCI  32
OSKALOOSA *    CLOUDY    36  25  64 N10       30.14R WCI  28
CENTERVILLE *  LGT RAIN  36  32  87 NW8       30.15R WCI  29
OTTUMWA        CLOUDY    37  24  59 NW10      30.13R WCI  30
WASHINGTON *   CLOUDY    34  27  75 N7        30.14R WCI  28
$$

ABBREVIATIONS USED IN REMARKS
   TC - TEMPERATURES IN CELSIUS
  WCI - WIND CHILL INDEX
   HX - HEAT INDEX
  VSB - VISIBILITY
$$



USA.gov is the U.S. government's official web portal to all federal, state and local government web resources and services.